• In Uzbekistan
  • List of Countries
  • For 7 days
  • Water Temperature
  • Satellite Maps
  • Weather Map
  • Weather Widgets
  • user-avatar
    Login

    Hourly Weather Solden

    Today, 6 December, Tuesday

    Time Temperature Precipitation Wind Pressure Humidity
    00:00 -12°C° 0 mm 1 mps 580 mmHg 75%
    01:00 -12°C° 0 mm 1 mps 581 mmHg 73%
    02:00 -12°C° 0 mm 1 mps 581 mmHg 71%
    03:00 -11°C° 0 mm 1 mps 581 mmHg 69%
    04:00 -11°C° 0 mm 1 mps 581 mmHg 66%
    05:00 -11°C° 0 mm 1 mps 581 mmHg 66%
    06:00 -13°C° 0 mm 2 mps 581 mmHg 66%
    07:00 -13°C° 0 mm 2 mps 582 mmHg 66%
    08:00 -10°C° 0 mm 2 mps 583 mmHg 65%
    09:00 -7°C° 0 mm 1 mps 584 mmHg 63%
    10:00 -4°C° 0 mm 1 mps 585 mmHg 61%
    11:00 -3°C° 0 mm 1 mps 586 mmHg 61%
    12:00 -2°C° 0 mm 1 mps 586 mmHg 62%
    13:00 -1°C° 0 mm 1 mps 586 mmHg 62%
    14:00 -3°C° 0 mm 1 mps 586 mmHg 66%
    15:00 -4°C° 0 mm 1 mps 585 mmHg 69%
    16:00 -7°C° 0 mm 1 mps 584 mmHg 73%
    17:00 -8°C° 0 mm 1 mps 584 mmHg 71%
    18:00 -9°C° 0 mm 1 mps 583 mmHg 69%
    19:00 -12°C° 0 mm 2 mps 583 mmHg 67%
    20:00 -12°C° 0 mm 2 mps 583 mmHg 64%
    21:00 -10°C° 0 mm 1 mps 583 mmHg 60%
    22:00 -11°C° 0 mm 1 mps 583 mmHg 57%
    23:00 -11°C° 0 mm 1 mps 583 mmHg 54%

    Tomorrow, 7 December, Wednesday

    Time Temperature Precipitation Wind Pressure Humidity
    00:00 -11°C° 0 mm 1 mps 583 mmHg 51%
    01:00 -11°C° 0 mm 1 mps 583 mmHg 48%
    02:00 -11°C° 0 mm 1 mps 583 mmHg 48%
    03:00 -11°C° 0 mm 1 mps 583 mmHg 47%
    04:00 -11°C° 0 mm 1 mps 583 mmHg 47%
    05:00 -11°C° 0 mm 1 mps 583 mmHg 47%
    06:00 -11°C° 0 mm 1 mps 583 mmHg 46%
    07:00 -11°C° 0 mm 1 mps 583 mmHg 46%
    08:00 -9°C° 0 mm 1 mps 585 mmHg 47%
    09:00 -6°C° 0 mm 1 mps 586 mmHg 48%
    10:00 -3°C° 0 mm 1 mps 588 mmHg 49%
    11:00 -3°C° 0 mm 0 mps 588 mmHg 51%
    12:00 -2°C° 0 mm 0 mps 589 mmHg 53%
    13:00 -1°C° 0 mm 0 mps 589 mmHg 55%
    14:00 -3°C° 0 mm 0 mps 588 mmHg 56%
    15:00 -5°C° 0 mm 0 mps 586 mmHg 58%
    16:00 -8°C° 0 mm 0 mps 585 mmHg 59%
    17:00 -8°C° 0 mm 0 mps 585 mmHg 58%
    18:00 -9°C° 0 mm 0 mps 585 mmHg 56%
    19:00 -9°C° 0 mm 1 mps 585 mmHg 55%
    20:00 -9°C° 0 mm 1 mps 585 mmHg 55%
    21:00 -9°C° 0 mm 0 mps 585 mmHg 54%
    22:00 -10°C° 0 mm 0 mps 585 mmHg 53%
    23:00 -9°C° 0 mm 1 mps 585 mmHg 52%

    Day after tomorrow, 8 December, Thursday

    Time Temperature Precipitation Wind Pressure Humidity
    00:00 -9°C° 0 mm 1 mps 585 mmHg 51%
    01:00 -9°C° 0 mm 1 mps 585 mmHg 51%
    02:00 -9°C° 0 mm 1 mps 585 mmHg 50%
    03:00 -9°C° 0 mm 1 mps 585 mmHg 50%
    04:00 -9°C° 0 mm 1 mps 585 mmHg 50%
    05:00 -9°C° 0 mm 1 mps 585 mmHg 50%
    06:00 -9°C° 0 mm 1 mps 585 mmHg 50%
    07:00 -9°C° 0 mm 1 mps 585 mmHg 50%
    08:00 -7°C° 0 mm 1 mps 586 mmHg 49%
    09:00 -4°C° 0 mm 1 mps 588 mmHg 49%
    10:00 -2°C° 0 mm 1 mps 589 mmHg 48%
    11:00 -1°C° 0 mm 1 mps 589 mmHg 50%
    12:00 0°C° 0 mm 1 mps 590 mmHg 52%
    13:00 +2°C° 0 mm 1 mps 590 mmHg 54%
    14:00 -2°C° 0 mm 0 mps 589 mmHg 53%
    15:00 -4°C° 0 mm 0 mps 587 mmHg 52%
    16:00 -6°C° 0 mm 0 mps 586 mmHg 50%
    17:00 -7°C° 0 mm 1 mps 586 mmHg 50%
    18:00 -7°C° 0 mm 1 mps 586 mmHg 51%
    19:00 -8°C° 0 mm 1 mps 585 mmHg 51%
    20:00 -8°C° 0 mm 1 mps 586 mmHg 51%
    21:00 -8°C° 0 mm 1 mps 586 mmHg 51%
    22:00 -8°C° 0 mm 1 mps 586 mmHg 51%
    23:00 -7°C° 0 mm 1 mps 586 mmHg 51%

    9 December, Friday

    Time Temperature Precipitation Wind Pressure Humidity
    00:00 -7°C° 0 mm 1 mps 586 mmHg 52%
    01:00 -7°C° 0 mm 1 mps 586 mmHg 52%
    02:00 -7°C° 0 mm 1 mps 586 mmHg 52%
    03:00 -6°C° 0 mm 1 mps 586 mmHg 51%
    04:00 -6°C° 0 mm 1 mps 586 mmHg 51%
    05:00 -7°C° 0 mm 1 mps 586 mmHg 50%
    06:00 -7°C° 0 mm 1 mps 586 mmHg 50%
    07:00 -8°C° 0 mm 1 mps 586 mmHg 50%
    08:00 -6°C° 0 mm 1 mps 587 mmHg 50%
    09:00 -3°C° 0 mm 1 mps 588 mmHg 51%
    10:00 -1°C° 0 mm 1 mps 589 mmHg 51%
    11:00 0°C° 0 mm 1 mps 589 mmHg 53%
    12:00 +1°C° 0 mm 1 mps 589 mmHg 56%
    13:00 +1°C° 0 mm 0 mps 590 mmHg 58%
    14:00 -1°C° 0 mm 0 mps 588 mmHg 57%
    15:00 -3°C° 0 mm 0 mps 586 mmHg 55%
    16:00 -5°C° 0 mm 0 mps 585 mmHg 54%
    17:00 -6°C° 0 mm 0 mps 585 mmHg 56%
    18:00 -7°C° 0 mm 0 mps 584 mmHg 59%
    19:00 -8°C° 0 mm 0 mps 584 mmHg 62%
    20:00 -7°C° 0 mm 0 mps 584 mmHg 60%
    21:00 -7°C° 0 mm 1 mps 585 mmHg 59%
    22:00 -6°C° 0 mm 1 mps 585 mmHg 58%
    23:00 -6°C° 0 mm 1 mps 585 mmHg 59%

    10 December, Saturday

    Time Temperature Precipitation Wind Pressure Humidity
    00:00 -6°C° 0 mm 1 mps 585 mmHg 61%
    01:00 -6°C° 0 mm 1 mps 585 mmHg 62%
    02:00 -6°C° 0 mm 1 mps 585 mmHg 62%
    03:00 -6°C° 0 mm 1 mps 585 mmHg 62%
    04:00 -6°C° 0 mm 1 mps 584 mmHg 61%
    05:00 -6°C° 0 mm 1 mps 584 mmHg 59%
    06:00 -6°C° 0 mm 1 mps 584 mmHg 57%
    07:00 -6°C° 0 mm 1 mps 584 mmHg 56%
    08:00 -4°C° 0 mm 1 mps 585 mmHg 53%
    09:00 -2°C° 0 mm 1 mps 586 mmHg 50%
    10:00 0°C° 0 mm 1 mps 587 mmHg 47%
    11:00 +1°C° 0 mm 1 mps 587 mmHg 50%
    12:00 +2°C° 0 mm 1 mps 587 mmHg 53%
    13:00 +3°C° 0 mm 1 mps 587 mmHg 56%
    14:00 +1°C° 0 mm 1 mps 586 mmHg 56%
    15:00 -1°C° 0 mm 1 mps 585 mmHg 56%
    16:00 -3°C° 0 mm 1 mps 583 mmHg 56%
    17:00 -3°C° 0 mm 1 mps 583 mmHg 56%
    18:00 -4°C° 0 mm 1 mps 583 mmHg 56%
    19:00 -6°C° 0 mm 1 mps 582 mmHg 56%
    20:00 -6°C° 0 mm 1 mps 582 mmHg 53%
    21:00 -6°C° 0 mm 1 mps 582 mmHg 51%
    22:00 -6°C° 0 mm 1 mps 582 mmHg 49%
    23:00 -6°C° 0 mm 1 mps 582 mmHg 49%

    11 December, Sunday

    Time Temperature Precipitation Wind Pressure Humidity
    00:00 -6°C° 0 mm 1 mps 582 mmHg 50%
    01:00 -6°C° 0 mm 1 mps 582 mmHg 50%
    02:00 -6°C° 0 mm 1 mps 581 mmHg 49%
    03:00 -6°C° 0 mm 1 mps 581 mmHg 48%
    04:00 -7°C° 0 mm 1 mps 581 mmHg 47%
    05:00 -7°C° 0 mm 1 mps 580 mmHg 46%
    06:00 -7°C° 0 mm 1 mps 580 mmHg 45%
    07:00 -7°C° 0 mm 1 mps 580 mmHg 45%
    08:00 -6°C° 0 mm 1 mps 581 mmHg 45%
    09:00 -4°C° 0 mm 1 mps 581 mmHg 46%
    10:00 -2°C° 0 mm 1 mps 582 mmHg 46%
    11:00 -1°C° 0 mm 1 mps 582 mmHg 49%
    12:00 0°C° 0 mm 1 mps 582 mmHg 52%
    13:00 +1°C° 0 mm 1 mps 582 mmHg 55%
    14:00 -1°C° 0 mm 1 mps 581 mmHg 56%
    15:00 -3°C° 0 mm 1 mps 579 mmHg 58%
    16:00 -6°C° 0 mm 1 mps 578 mmHg 59%
    17:00 -6°C° 0 mm 1 mps 578 mmHg 61%
    18:00 -4°C° 0 mm 1 mps 579 mmHg 64%
    19:00 -4°C° 0 mm 1 mps 579 mmHg 66%
    20:00 -4°C° 0.1 mm 1 mps 579 mmHg 68%
    21:00 -4°C° 0.1 mm 1 mps 579 mmHg 71%
    22:00 -3°C° 0.1 mm 1 mps 580 mmHg 74%
    23:00 -5°C° 0.2 mm 2 mps 580 mmHg 76%
    Show more